THOR ABLESTAR DEB, 125

Orbit data source: Space-Track

THOR ABLESTAR DEB, 125 is space debris in LEO originally from a launch on Thu, 29 Jun 1961 UTC launched from the Air Force Eastern Test Range (AFETR). Debris objects in space refer to the collection of defunct objects orbiting the Earth. Examples of debris include non-operational satellites, rocket bodies, and fragments generated from explosions, collisions, or faulty payload assembly.

Loading next visibility...
Identifier
125, 1961-015K
Orbit
LEO
Last TLE update
18 hours ago
Origin
Manufacturer
Unknown
Mission
Spacecraft
Bus & Motor
Unknown
Mass
Unknown
Launch date (UTC)
1961-06-29 (64 years ago)
Launch vehicle
Unknown
Launch site
Air Force Eastern Test Range (AFETR)
Object type
Payload
Rocket body
Debris
Shape & HBR
Unknown
Radar Cross Section
Small (<0.1 m²)

Expand to show TLE details & history

TLE from 18 hours ago
0 THOR ABLESTAR DEB
1   125U 61015K   25128.61558151  .00000332  00000-0  23872-3 0  9994
2   125  66.8755 221.8418 0074153 355.3816   4.6578 14.07320532260818
Epoch: 2025-05-08T14:46Z
Definitive object data (Epoch: 2025-05-08T14:46:26.242Z)
Latitude
-0.00005°
Longitude
133.54891°
Altitude
817.091 km
Speed
7.472 km/s
True Right ascension
14h 47m 22s
True Declination
0° 00' 00"
Sunlit
Object was in full shadow at TLE epoch
Visualization TLE readout
Latitude
17.7959°
Longitude
-56.14491°
Altitude
922.147 km
Speed
7.366 km/s
Apparent Right ascension
03h 12m 32s
Apparent Declination
-9° 23' 45"
Sunlit
Object is in daylight
Visualization observer readout
Local Sidereal Time
16:44:34
Azimuth
40.13° NE
Elevation
-53.249°
Doppler factor
1
Orbital elements
Apogee altitude
920.652 km
Perigee altitude
813.203 km
Semi-major axis
7,245.064 km
Eccentricity
0.0074153
Inclination
66.8755°
RAAN
221.8418°
Arg. of periapsis
355.3816°
True anomaly
4.72745°
Mean anomaly
4.6578°
Eccentric anomaly
4.69256°
Mean motion
3.51949 °/min
BSTAR
0.00023872
Orbital period
102.29 mins
Loading maneuver chart data...
Loading SW <> Apogee altitude chart data...

THOR ABLESTAR DEB Visibility forecast

Observer location: undefined°, undefined°

Span
Click to sort rows by Start time (UTC) header in descending order
Start Az.
Max El. time (UTC)
Max El. Az.
Max El.
End time (UTC)
End Az.
5 mins2025-05-09 09:46:23.274Z295.812° NW2025-05-09 09:48:23.274Z318.702° NNW14.261°2025-05-09 09:51:23.274Z351.548° N
6 mins2025-05-09 15:11:23.274Z13.806° NNE2025-05-09 15:13:23.274Z36.381° NE16.361°2025-05-09 15:17:23.274Z79.835° E
10 mins2025-05-09 16:55:23.274Z332.337° NNW2025-05-09 16:59:23.274Z345.914° N44.256°2025-05-09 17:05:23.274Z151.228° SSE
4 mins2025-05-10 06:09:23.274Z121.315° SE2025-05-10 06:10:23.274Z109.211° ESE14.917°2025-05-10 06:13:23.274Z74.26° E
9 mins2025-05-10 07:51:23.274Z219.664° SW2025-05-10 07:55:23.274Z309.107° NW43.215°2025-05-10 08:00:23.274Z23.931° NE
|